ONEWEB-0299, 49088

Orbit data source: Space-Track

ONEWEB-0299, 49088 is a payload satellite owned by One Web (NAA) (UK) in LEO that was launched on Sat, 21 Aug 2021 UTC via a SOYUZ-2-1B launch vehicle from the Tyuratam Missile And Space Complex (TTMTR). Payload-class satellites include a variety of spacecraft equipped with specific instruments for various scientific and technological missions. These include communications satellites like Starlink; space stations such as the ISS; scientific satellites like the Hubble; Earth observation satellites from companies like Planet Labs, Umbra, and HawkEye 360; GPS; miniature CubeSats for education and research; and military/defense satellites.

Loading next visibility...
Identifier
49088, 2021-075P
Orbit
LEO
Country
Flag of UKUK
Related business
Manufacturer
One Web
Mission
Operational Commercial Communications
Bus & Motor
ARROW, Unknown motor
Mass
148 kg wet, ~140 kg dry
Launch date (UTC)
2021-08-21 (5 years ago)
Launch vehicle
SOYUZ-2-1B
Launch site
Tyuratam Missile And Space Complex (TTMTR)
Object type
Payload
Rocket body
Debris
Shape & HBR
Trap Box + 2 Pan, 6.7 m
Radar Cross Section
3.464 m², Large (>1 m²)

Expand to show TLE details & history
Last TLE update: 1 day ago

TLE from 1 day ago
0 ONEWEB-0299
1 49088U 21075P   26175.25571433  .00000026  00000-0  33522-4 0  9992
2 49088  87.9141   4.4418 0001997  86.0647 274.0713 13.17649641234532
Epoch: 2026-06-24T06:08Z
TLE epoch observation values (Epoch: 2026-06-24T06:08:13.718Z)
Latitude
0.00002°
Longitude
-0.0309°
Altitude
1,196.502 km
Speed
7.256 km/s
True Right ascension
00h 17m 46s
True Declination
0° 00' 00"
Sunlit
Object was in daylight at epoch
Visualization orbit readout
Latitude
Unknown
Longitude
Unknown
Altitude
Unknown
Speed
Unknown
Apparent Right ascension
Unknown
Apparent Declination
Unknown
Sunlit
N/A
Visualization observer readout
Local Sidereal Time
17:12:41
Azimuth
Unknown
Elevation
Unknown
Doppler factor
Unknown
Orbital elements
Apogee altitude
1,192.331 km
Perigee altitude
1,189.308 km
Semi-major axis
7,568.957 km
Eccentricity
0.0002
Inclination
87.9141°
RAAN
4.4418°
Arg. of periapsis
86.0647°
True anomaly
274.04847°
Mean anomaly
274.0713°
Eccentric anomaly
274.05989°
Mean motion
3.29601 °/min
Orbital period
109.22 mins
BSTAR
0.000033522
Loading maneuver chart data...
Computing Atmospheric mass density...
Loading historical data...
Loading historical data...
Loading historical data...
Loading historical data...
Loading historical data...
Loading historical data...
Loading historical data...

Documentation

Showing up to 5 results
|